Terminal Aerodrome Forecast
Issued by NWS Wilmington, NC

Home | Current Version | Previous Version | Text Only | Print | Product List | Glossary On
Versions: 1 2 3 4 5 6 7 8 9 10 11 12 13 14 15 16
000
FTUS42 KILM 200500
TAFILM
TAF
KILM 200531Z 2006/2106 04009KT P6SM BKN250
     FM201600 05011G18KT P6SM VCSH SCT030 OVC250
     FM201800 05010G17KT P6SM VCSH BKN020 BKN100
     FM201900 05009G16KT P6SM OVC020 PROB30 2019/2021 P6SM -RA
      OVC050
     FM202100 05009KT P6SM VCSH SCT020 BKN100=

USA.gov is the U.S. government's official web portal to all federal, state and local government web resources and services.